Location: Banios
(43.0451°N, 0.2335°E)
Time: 13:26:26
(UTC+00:00)

Lacrosse 5 rocket - Pass Details

Date: 25 January 2021
Orbit: 464 x 630 km, 57.0° (Epoch: 25 February)

Event Time Altitude Azimuth Distance (km) Brightness Sun altitude
Exits shadow 06:25:51 12° 264° (W) 1,545 3.0 -10.2°
Maximum altitude 06:27:18 15° 239° (WSW) 1,403 3.0 -10.0°
Drops below altitude 10° 06:29:27 10° 203° (SSW) 1,654 3.7 -9.6°
Sets 06:32:16 0° 179° (S) 2,505 4.9 -9.1°
